| time (UTC) | temp F | wind direction | speed MPH | gust MPH | rain 1hr in | rain 24hr in | rain mn in | humidity % | barometer mb |
| 20260502210043 | 57 | 0 | 0.0 | 4.0 | 0.08 | 0.46 | 0.46 | 93 | 1009.7 |
| 20260502205532 | 57 | 0 | 0.0 | 4.0 | 0.07 | 0.45 | 0.45 | 93 | 1009.8 |
| 20260502205036 | 57 | 0 | 0.0 | 4.0 | 0.06 | 0.44 | 0.44 | 93 | 1009.8 |
| 20260502204543 | 57 | 0 | 0.0 | 4.0 | 0.06 | 0.43 | 0.43 | 93 | 1009.9 |
| 20260502204033 | 57 | 0 | 0.0 | 4.0 | 0.05 | 0.42 | 0.42 | 93 | 1009.9 |
| 20260502203532 | 57 | 0 | 0.0 | 4.0 | 0.05 | 0.42 | 0.42 | 93 | 1009.9 |
| 20260502203041 | 57 | 0 | 0.0 | 4.0 | 0.05 | 0.42 | 0.42 | 93 | 1009.9 |
| 20260502202531 | 57 | 0 | 0.0 | 4.0 | 0.05 | 0.41 | 0.41 | 93 | 1010.1 |
| 20260502202032 | 57 | 0 | 0.0 | 4.0 | 0.05 | 0.41 | 0.41 | 93 | 1010.1 |
| 20260502201547 | 57 | 0 | 0.0 | 3.0 | 0.04 | 0.40 | 0.40 | 93 | 1010.2 |
| 20260502201032 | 57 | 0 | 0.0 | 3.0 | 0.04 | 0.40 | 0.40 | 93 | 1010.1 |
| 20260502200533 | 57 | 0 | 0.0 | 3.0 | 0.03 | 0.39 | 0.39 | 93 | 1010.0 |
| 20260502200044 | 57 | 0 | 0.0 | 4.0 | 0.03 | 0.38 | 0.38 | 93 | 1010.0 |
| 20260502195531 | 57 | 0 | 0.0 | 4.0 | 0.03 | 0.38 | 0.38 | 93 | 1010.2 |
| 20260502195035 | 57 | 298 | 0.0 | 4.0 | 0.04 | 0.38 | 0.38 | 93 | 1010.1 |
| 20260502194544 | 57 | 0 | 0.0 | 3.0 | 0.03 | 0.37 | 0.37 | 93 | 1010.2 |
| 20260502194032 | 57 | 0 | 0.0 | 5.0 | 0.03 | 0.37 | 0.37 | 93 | 1010.4 |
| 20260502193533 | 58 | 0 | 1.0 | 5.0 | 0.04 | 0.37 | 0.37 | 93 | 1010.4 |
| 20260502193046 | 58 | 0 | 0.0 | 2.0 | 0.04 | 0.37 | 0.37 | 93 | 1010.6 |
| 20260502192532 | 58 | 0 | 0.0 | 3.0 | 0.03 | 0.36 | 0.36 | 93 | 1010.5 |
| 20260502192033 | 58 | 0 | 0.0 | 3.0 | 0.03 | 0.36 | 0.36 | 93 | 1010.6 |
| 20260502191548 | 58 | 71 | 0.0 | 2.0 | 0.04 | 0.36 | 0.36 | 93 | 1010.3 |
| 20260502191033 | 58 | 129 | 0.0 | 2.0 | 0.04 | 0.36 | 0.36 | 93 | 1010.4 |
| 20260502190533 | 58 | 0 | 0.0 | 3.0 | 0.03 | 0.35 | 0.35 | 93 | 1010.3 |
| 20260502190044 | 58 | 0 | 0.0 | 3.0 | 0.03 | 0.35 | 0.35 | 93 | 1010.3 |
| 20260502185533 | 58 | 0 | 0.0 | 3.0 | 0.03 | 0.35 | 0.35 | 93 | 1010.6 |
| 20260502185033 | 58 | 197 | 0.0 | 2.0 | 0.03 | 0.34 | 0.34 | 93 | 1010.8 |
| 20260502184542 | 58 | 0 | 0.0 | 7.0 | 0.03 | 0.34 | 0.34 | 93 | 1011.0 |
| 20260502184033 | 58 | 0 | 1.0 | 7.0 | 0.04 | 0.34 | 0.34 | 93 | 1011.1 |
| 20260502183531 | 58 | 0 | 0.0 | 3.0 | 0.04 | 0.33 | 0.33 | 93 | 1010.9 |
| 20260502183044 | 58 | 0 | 0.0 | 1.0 | 0.05 | 0.33 | 0.33 | 93 | 1010.8 |
| 20260502182531 | 58 | 0 | 0.0 | 4.0 | 0.05 | 0.33 | 0.33 | 93 | 1010.7 |
| 20260502182031 | 58 | 0 | 0.0 | 4.0 | 0.06 | 0.33 | 0.33 | 93 | 1010.7 |
| 20260502181549 | 58 | 0 | 0.0 | 4.0 | 0.07 | 0.32 | 0.32 | 93 | 1010.8 |
| 20260502181033 | 58 | 0 | 0.0 | 4.0 | 0.08 | 0.32 | 0.32 | 93 | 1010.7 |
| 20260502180534 | 58 | 70 | 0.0 | 5.0 | 0.10 | 0.32 | 0.32 | 93 | 1010.6 |
| 20260502164044 | 58 | 0 | 0.0 | 3.0 | 0.06 | 0.16 | 0.16 | 92 | 1012.3 |
| 20260502163533 | 58 | 0 | 0.0 | 3.0 | 0.05 | 0.15 | 0.15 | 92 | 1012.1 |
| 20260502163051 | 58 | 0 | 0.0 | 1.0 | 0.06 | 0.15 | 0.15 | 92 | 1012.1 |
| 20260502162533 | 58 | 0 | 0.0 | 2.0 | 0.05 | 0.14 | 0.14 | 91 | 1012.1 |
| 20260502162032 | 58 | 0 | 0.0 | 2.0 | 0.04 | 0.13 | 0.13 | 91 | 1012.2 |
| 20260502161544 | 58 | 0 | 0.0 | 1.0 | 0.03 | 0.12 | 0.12 | 91 | 1012.2 |
| 20260502161033 | 58 | 0 | 0.0 | 1.0 | 0.03 | 0.12 | 0.12 | 91 | 1012.2 |
| 20260502160534 | 58 | 0 | 0.0 | 4.0 | 0.02 | 0.11 | 0.11 | 91 | 1012.4 |
| 20260502152034 | 58 | 0 | 0.0 | 4.0 | 0.00 | 0.09 | 0.09 | 90 | 1012.1 |
| 20260502151548 | 58 | 0 | 0.0 | 2.0 | 0.00 | 0.09 | 0.09 | 90 | 1012.3 |
| 20260502151034 | 58 | 0 | 0.0 | 2.0 | 0.00 | 0.09 | 0.09 | 91 | 1012.5 |
| 20260502150533 | 58 | 114 | 0.0 | 2.0 | 0.00 | 0.09 | 0.09 | 91 | 1012.2 |
| 20260502130533 | 56 | 0 | 0.0 | 3.0 | 0.00 | 0.09 | 0.09 | 94 | 1011.8 |
| 20260502123532 | 56 | 0 | 0.0 | 3.0 | 0.01 | 0.09 | 0.09 | 93 | 1011.7 |
| 20260502123054 | 56 | 61 | 0.0 | 3.0 | 0.02 | 0.09 | 0.09 | 93 | 1011.7 |
| 20260502122533 | 56 | 0 | 0.0 | 3.0 | 0.02 | 0.09 | 0.09 | 93 | 1011.7 |
| 20260502122033 | 56 | 0 | 0.0 | 3.0 | 0.03 | 0.09 | 0.09 | 93 | 1011.7 |
| 20260502121541 | 56 | 0 | 0.0 | 3.0 | 0.04 | 0.09 | 0.09 | 93 | 1011.6 |
| 20260502121033 | 56 | 0 | 0.0 | 1.0 | 0.04 | 0.09 | 0.09 | 93 | 1011.6 |
| 20260502120533 | 56 | 0 | 0.0 | 1.0 | 0.05 | 0.09 | 0.09 | 93 | 1011.6 |
| 20260502115534 | 56 | 0 | 0.0 | 1.0 | 0.05 | 0.08 | 0.08 | 93 | 1011.7 |
| 20260502115033 | 56 | 0 | 0.0 | 1.0 | 0.06 | 0.08 | 0.08 | 93 | 1011.6 |
| 20260502114543 | 56 | 0 | 0.0 | 4.0 | 0.06 | 0.08 | 0.08 | 93 | 1011.5 |
| 20260502114033 | 56 | 0 | 0.0 | 4.0 | 0.07 | 0.08 | 0.08 | 93 | 1011.4 |
| 20260502113533 | 57 | 138 | 0.0 | 5.0 | 0.07 | 0.08 | 0.08 | 93 | 1011.5 |
| 20260502113049 | 57 | 0 | 0.0 | 5.0 | 0.06 | 0.07 | 0.07 | 93 | 1011.5 |
| 20260502112532 | 57 | 19 | 0.0 | 2.0 | 0.07 | 0.07 | 0.07 | 93 | 1011.4 |
| 20260502112032 | 57 | 0 | 0.0 | 2.0 | 0.06 | 0.06 | 0.06 | 93 | 1011.3 |
| 20260502111553 | 57 | 0 | 0.0 | 1.0 | 0.05 | 0.05 | 0.05 | 93 | 1011.3 |
| 20260502111032 | 57 | 0 | 0.0 | 0.0 | 0.05 | 0.05 | 0.05 | 93 | 1011.3 |
| 20260502110532 | 57 | 0 | 0.0 | 0.0 | 0.04 | 0.04 | 0.04 | 93 | 1011.2 |
| 20260502110042 | 57 | 0 | 0.0 | 0.0 | 0.03 | 0.03 | 0.03 | 93 | 1011.0 |
| 20260502105533 | 57 | 0 | 0.0 | 0.0 | 0.03 | 0.03 | 0.03 | 93 | 1011.1 |
| 20260502105033 | 56 | 0 | 0.0 | 1.0 | 0.02 | 0.02 | 0.02 | 93 | 1011.1 |
| 20260502104545 | 56 | 0 | 0.0 | 1.0 | 0.02 | 0.02 | 0.02 | 93 | 1011.1 |
| 20260502104036 | 56 | 0 | 0.0 | 4.0 | 0.01 | 0.01 | 0.01 | 93 | 1011.2 |
| 20260502103533 | 56 | 0 | 0.0 | 4.0 | 0.01 | 0.01 | 0.01 | 93 | 1011.1 |
| 20260502103043 | 56 | 0 | 0.0 | 0.0 | 0.01 | 0.01 | 0.01 | 93 | 1011.3 |
| 20260502102533 | 56 | 0 | 0.0 | 1.0 | 0.00 | 0.00 | 0.00 | 92 | 1011.2 |
| 20260502102034 | 56 | 0 | 0.0 | 1.0 | 0.00 | 0.00 | 0.00 | 92 | 1011.3 |
| 20260502101546 | 56 | 0 | 0.0 | 1.0 | 0.00 | 0.00 | 0.00 | 92 | 1011.1 |
| 20260502101032 | 56 | 0 | 0.0 | 1.0 | 0.00 | 0.00 | 0.00 | 92 | 1011.1 |
| 20260502100532 | 56 | 0 | 0.0 | 1.0 | 0.00 | 0.00 | 0.00 | 92 | 1011.0 |
| 20260502091032 | 56 | 0 | 0.0 | 0.0 | 0.00 | 0.00 | 0.00 | 90 | 1010.7 |
| 20260502090532 | 56 | 0 | 0.0 | 0.0 | 0.00 | 0.00 | 0.00 | 91 | 1010.7 |
| 20260502071034 | 56 | 0 | 0.0 | 0.0 | 0.00 | 0.00 | 0.00 | 88 | 1011.0 |
| 20260502070534 | 56 | 0 | 0.0 | 0.0 | 0.00 | 0.00 | 0.00 | 88 | 1011.0 |
| 20260502070048 | 56 | 0 | 0.0 | 0.0 | 0.00 | 0.00 | 0.00 | 88 | 1011.2 |
| 20260502065533 | 56 | 0 | 0.0 | 0.0 | 0.00 | 0.00 | 0.00 | 88 | 1011.2 |
| 20260502065033 | 56 | 0 | 0.0 | 0.0 | 0.00 | 0.00 | 0.00 | 88 | 1011.2 |
| 20260502064550 | 56 | 0 | 0.0 | 0.0 | 0.00 | 0.00 | 0.00 | 88 | 1011.3 |
| 20260502064035 | 56 | 0 | 0.0 | 0.0 | 0.00 | 0.00 | 0.00 | 88 | 1011.2 |
| 20260502063533 | 56 | 0 | 0.0 | 0.0 | 0.00 | 0.00 | 0.00 | 88 | 1011.2 |
| 20260502063100 | 56 | 0 | 0.0 | 0.0 | 0.00 | 0.00 | 0.00 | 88 | 1011.3 |
| 20260502062532 | 56 | 0 | 0.0 | 0.0 | 0.00 | 0.00 | 0.00 | 88 | 1011.3 |
| 20260502062031 | 56 | 0 | 0.0 | 0.0 | 0.00 | 0.00 | 0.00 | 87 | 1011.4 |
| 20260502061552 | 56 | 0 | 0.0 | 0.0 | 0.00 | 0.00 | 0.00 | 87 | 1011.3 |
| 20260502061032 | 56 | 0 | 0.0 | 0.0 | 0.00 | 0.00 | 0.00 | 87 | 1011.2 |
| 20260502060532 | 56 | 0 | 0.0 | 0.0 | 0.00 | 0.00 | 0.00 | 87 | 1011.3 |
| 20260502060051 | 56 | 0 | 0.0 | 0.0 | 0.00 | 0.00 | 0.00 | 87 | 1011.2 |
| 20260502055533 | 56 | 0 | 0.0 | 0.0 | 0.00 | 0.00 | 0.00 | 87 | 1011.4 |
| 20260502055033 | 56 | 0 | 0.0 | 0.0 | 0.00 | 0.00 | 0.00 | 87 | 1011.5 |
| 20260502054545 | 56 | 0 | 0.0 | 0.0 | 0.00 | 0.00 | 0.00 | 87 | 1011.7 |
| 20260502054032 | 57 | 0 | 0.0 | 0.0 | 0.00 | 0.00 | 0.00 | 87 | 1011.9 |
| 20260502053532 | 57 | 0 | 0.0 | 0.0 | 0.00 | 0.00 | 0.00 | 87 | 1011.9 |
| 20260502053055 | 57 | 0 | 0.0 | 0.0 | 0.00 | 0.00 | 0.00 | 87 | 1012.0 |
| 20260502052532 | 57 | 0 | 0.0 | 0.0 | 0.00 | 0.00 | 0.00 | 86 | 1012.0 |
| 20260502052032 | 57 | 0 | 0.0 | 0.0 | 0.00 | 0.00 | 0.00 | 86 | 1012.1 |
| 20260502051545 | 57 | 0 | 0.0 | 0.0 | 0.00 | 0.00 | 0.00 | 85 | 1012.1 |
| 20260502051032 | 57 | 0 | 0.0 | 0.0 | 0.00 | 0.00 | 0.00 | 85 | 1012.0 |
| 20260502050533 | 57 | 0 | 0.0 | 0.0 | 0.00 | 0.00 | 0.00 | 85 | 1012.1 |
| 20260502050050 | 57 | 0 | 0.0 | 0.0 | 0.00 | 0.00 | 0.00 | 85 | 1012.1 |
| 20260502045532 | 57 | 0 | 0.0 | 0.0 | 0.00 | 0.00 | 0.00 | 85 | 1012.2 |
| 20260502045033 | 57 | 0 | 0.0 | 2.0 | 0.00 | 0.00 | 0.00 | 85 | 1012.0 |
| 20260502044548 | 57 | 0 | 0.0 | 2.0 | 0.00 | 0.00 | 0.00 | 85 | 1012.1 |
| 20260502044031 | 57 | 67 | 0.0 | 1.0 | 0.00 | 0.00 | 0.00 | 85 | 1012.2 |
| 20260502043534 | 57 | 0 | 0.0 | 0.0 | 0.00 | 0.00 | 0.00 | 85 | 1012.2 |
| 20260502043042 | 57 | 0 | 0.0 | 0.0 | 0.00 | 0.00 | 0.00 | 85 | 1012.2 |
| 20260502042532 | 57 | 0 | 0.0 | 1.0 | 0.00 | 0.00 | 0.00 | 85 | 1012.3 |
| 20260502042032 | 57 | 0 | 0.0 | 1.0 | 0.00 | 0.00 | 0.00 | 85 | 1012.3 |
| 20260502041539 | 57 | 0 | 0.0 | 0.0 | 0.00 | 0.00 | 0.00 | 85 | 1012.4 |
| 20260502041032 | 57 | 0 | 0.0 | 0.0 | 0.00 | 0.00 | 0.00 | 85 | 1012.5 |
| 20260502040532 | 56 | 0 | 0.0 | 0.0 | 0.00 | 0.00 | 0.00 | 84 | 1012.5 |
| 20260502040101 | 56 | 0 | 0.0 | 0.0 | 0.00 | 0.00 | 0.00 | 84 | 1012.5 |
| 20260502035532 | 56 | 0 | 0.0 | 0.0 | 0.00 | 0.00 | 0.00 | 85 | 1012.6 |
| 20260502035032 | 56 | 0 | 0.0 | 0.0 | 0.00 | 0.00 | 0.00 | 85 | 1012.7 |
| 20260502034545 | 56 | 0 | 0.0 | 0.0 | 0.00 | 0.00 | 0.00 | 85 | 1012.8 |
| 20260502034032 | 56 | 0 | 0.0 | 0.0 | 0.00 | 0.00 | 0.00 | 85 | 1012.8 |
| 20260502033531 | 56 | 0 | 0.0 | 0.0 | 0.00 | 0.00 | 0.00 | 85 | 1012.8 |
| 20260502033043 | 56 | 0 | 0.0 | 0.0 | 0.00 | 0.00 | 0.00 | 85 | 1012.8 |
| 20260502032532 | 56 | 0 | 0.0 | 0.0 | 0.00 | 0.00 | 0.00 | 85 | 1012.9 |
| 20260502032032 | 56 | 0 | 0.0 | 0.0 | 0.00 | 0.00 | 0.00 | 85 | 1012.8 |
| 20260502031540 | 56 | 0 | 0.0 | 0.0 | 0.00 | 0.00 | 0.00 | 85 | 1013.2 |
| 20260502031033 | 56 | 0 | 0.0 | 0.0 | 0.00 | 0.00 | 0.00 | 85 | 1013.0 |
| 20260502030532 | 56 | 0 | 0.0 | 0.0 | 0.00 | 0.00 | 0.00 | 85 | 1013.0 |
| 20260502030047 | 56 | 0 | 0.0 | 0.0 | 0.00 | 0.00 | 0.00 | 86 | 1013.3 |
| 20260502025534 | 56 | 0 | 0.0 | 0.0 | 0.00 | 0.00 | 0.00 | 86 | 1013.3 |
| 20260502025031 | 56 | 0 | 0.0 | 0.0 | 0.00 | 0.00 | 0.00 | 86 | 1013.4 |
| 20260502024543 | 56 | 0 | 0.0 | 0.0 | 0.00 | 0.00 | 0.00 | 85 | 1013.3 |
| 20260502024032 | 56 | 0 | 0.0 | 0.0 | 0.00 | 0.00 | 0.00 | 85 | 1013.4 |
| 20260502023532 | 56 | 0 | 0.0 | 0.0 | 0.00 | 0.00 | 0.00 | 85 | 1013.4 |
| 20260502023043 | 56 | 0 | 0.0 | 0.0 | 0.00 | 0.00 | 0.00 | 85 | 1013.2 |
| 20260502022531 | 56 | 0 | 0.0 | 0.0 | 0.00 | 0.00 | 0.00 | 84 | 1013.1 |
| 20260502022031 | 56 | 0 | 0.0 | 0.0 | 0.00 | 0.00 | 0.00 | 84 | 1013.1 |
| 20260502021544 | 56 | 0 | 0.0 | 0.0 | 0.00 | 0.00 | 0.00 | 84 | 1013.2 |
| 20260502021033 | 56 | 0 | 0.0 | 0.0 | 0.00 | 0.00 | 0.00 | 84 | 1013.2 |
| 20260502020532 | 56 | 0 | 0.0 | 0.0 | 0.00 | 0.00 | 0.00 | 84 | 1013.1 |
| 20260502020044 | 56 | 0 | 0.0 | 0.0 | 0.00 | 0.00 | 0.00 | 84 | 1013.2 |
| 20260502015535 | 56 | 0 | 0.0 | 0.0 | 0.00 | 0.00 | 0.00 | 84 | 1013.1 |
| 20260502015032 | 56 | 0 | 0.0 | 0.0 | 0.00 | 0.00 | 0.00 | 84 | 1013.1 |
| 20260502014543 | 56 | 0 | 0.0 | 0.0 | 0.00 | 0.00 | 0.00 | 84 | 1013.2 |
| 20260502014035 | 56 | 0 | 0.0 | 0.0 | 0.00 | 0.00 | 0.00 | 84 | 1013.2 |
| 20260502013534 | 56 | 0 | 0.0 | 0.0 | 0.00 | 0.00 | 0.00 | 84 | 1013.2 |
| 20260502013043 | 56 | 0 | 0.0 | 0.0 | 0.00 | 0.00 | 0.00 | 84 | 1013.3 |
| 20260502012532 | 56 | 0 | 0.0 | 0.0 | 0.00 | 0.00 | 0.00 | 84 | 1013.4 |
| 20260502012032 | 56 | 0 | 0.0 | 0.0 | 0.00 | 0.00 | 0.00 | 84 | 1013.6 |
| 20260502011544 | 56 | 0 | 0.0 | 0.0 | 0.00 | 0.00 | 0.00 | 84 | 1013.6 |
| 20260502011033 | 56 | 0 | 0.0 | 0.0 | 0.00 | 0.00 | 0.00 | 84 | 1013.4 |
| 20260502010532 | 56 | 0 | 0.0 | 0.0 | 0.00 | 0.00 | 0.00 | 84 | 1013.3 |
| 20260502010040 | 57 | 0 | 0.0 | 0.0 | 0.00 | 0.00 | 0.00 | 83 | 1013.2 |
| 20260502005533 | 57 | 0 | 0.0 | 0.0 | 0.00 | 0.00 | 0.00 | 83 | 1013.1 |
| 20260502005033 | 57 | 0 | 0.0 | 0.0 | 0.00 | 0.00 | 0.00 | 82 | 1013.0 |
| 20260502004543 | 58 | 0 | 0.0 | 0.0 | 0.00 | 0.00 | 0.00 | 81 | 1012.9 |
| 20260502004031 | 58 | 0 | 0.0 | 0.0 | 0.00 | 0.00 | 0.00 | 81 | 1012.8 |
| 20260502003531 | 58 | 0 | 0.0 | 0.0 | 0.00 | 0.00 | 0.00 | 80 | 1012.8 |
| 20260502003043 | 59 | 0 | 0.0 | 0.0 | 0.00 | 0.00 | 0.00 | 79 | 1012.8 |
| 20260502002531 | 59 | 0 | 0.0 | 0.0 | 0.00 | 0.00 | 0.00 | 79 | 1012.8 |
| 20260502002034 | 59 | 0 | 0.0 | 0.0 | 0.00 | 0.00 | 0.00 | 78 | 1013.0 |
| 20260502001551 | 59 | 0 | 0.0 | 0.0 | 0.00 | 0.00 | 0.00 | 78 | 1013.2 |
| 20260502001035 | 59 | 0 | 0.0 | 0.0 | 0.00 | 0.00 | 0.00 | 75 | 1013.0 |
| 20260502000531 | 59 | 0 | 0.0 | 0.0 | 0.00 | 0.00 | 0.00 | 75 | 1013.0 |
| 20260502000046 | 60 | 0 | 0.0 | 0.0 | 0.00 | 0.00 | 0.00 | 75 | 1012.9 |
| 20260501235533 | 60 | 0 | 0.0 | 0.0 | 0.00 | 0.00 | 0.00 | 75 | 1012.9 |
| 20260501235035 | 60 | 0 | 0.0 | 0.0 | 0.00 | 0.00 | 0.00 | 74 | 1013.0 |
| 20260501234550 | 60 | 0 | 0.0 | 0.0 | 0.00 | 0.00 | 0.00 | 74 | 1013.1 |
| 20260501234033 | 60 | 0 | 0.0 | 0.0 | 0.00 | 0.00 | 0.00 | 73 | 1013.2 |
| 20260501233532 | 60 | 0 | 0.0 | 0.0 | 0.00 | 0.00 | 0.00 | 73 | 1013.1 |
| 20260501233043 | 60 | 0 | 0.0 | 0.0 | 0.00 | 0.00 | 0.00 | 74 | 1013.3 |
| 20260501232533 | 60 | 0 | 0.0 | 3.0 | 0.00 | 0.00 | 0.00 | 72 | 1013.4 |
| 20260501232032 | 61 | 0 | 0.0 | 4.0 | 0.00 | 0.00 | 0.00 | 71 | 1013.4 |
| 20260501231557 | 61 | 0 | 0.0 | 4.0 | 0.00 | 0.00 | 0.00 | 70 | 1013.4 |
| 20260501231031 | 61 | 69 | 0.0 | 4.0 | 0.00 | 0.00 | 0.00 | 69 | 1013.5 |
| 20260501230533 | 61 | 65 | 1.0 | 3.0 | 0.00 | 0.00 | 0.00 | 68 | 1013.5 |
| 20260501230046 | 61 | 53 | 0.0 | 1.0 | 0.00 | 0.00 | 0.00 | 68 | 1013.5 |
| 20260501225536 | 61 | 0 | 0.0 | 5.0 | 0.00 | 0.00 | 0.00 | 69 | 1013.6 |
| 20260501225035 | 61 | 0 | 0.0 | 5.0 | 0.00 | 0.00 | 0.00 | 68 | 1013.6 |
| 20260501224559 | 62 | 0 | 0.0 | 1.0 | 0.00 | 0.00 | 0.00 | 71 | 1013.5 |
| 20260501224034 | 62 | 0 | 0.0 | 0.0 | 0.00 | 0.00 | 0.00 | 68 | 1013.7 |
| 20260501223534 | 62 | 0 | 0.0 | 0.0 | 0.00 | 0.00 | 0.00 | 69 | 1013.7 |
| 20260501223049 | 62 | 0 | 0.0 | 0.0 | 0.00 | 0.00 | 0.00 | 69 | 1013.8 |
| 20260501222534 | 62 | 0 | 0.0 | 3.0 | 0.00 | 0.00 | 0.00 | 68 | 1013.7 |
| 20260501222035 | 62 | 0 | 0.0 | 3.0 | 0.00 | 0.00 | 0.00 | 68 | 1013.6 |
| 20260501221600 | 62 | 71 | 0.0 | 3.0 | 0.00 | 0.00 | 0.00 | 67 | 1013.5 |
| 20260501221031 | 62 | 0 | 0.0 | 3.0 | 0.00 | 0.00 | 0.00 | 67 | 1013.7 |
| 20260501220537 | 62 | 0 | 0.0 | 5.0 | 0.00 | 0.00 | 0.00 | 66 | 1013.7 |
| 20260501220045 | 62 | 0 | 0.0 | 5.0 | 0.00 | 0.00 | 0.00 | 68 | 1013.7 |
| 20260501215534 | 62 | 0 | 0.0 | 4.0 | 0.00 | 0.00 | 0.00 | 67 | 1013.6 |
| 20260501215034 | 62 | 0 | 1.0 | 4.0 | 0.00 | 0.00 | 0.00 | 66 | 1013.6 |
| 20260501214541 | 62 | 0 | 0.0 | 5.0 | 0.00 | 0.00 | 0.00 | 65 | 1013.8 |
| 20260501214037 | 62 | 70 | 1.0 | 5.0 | 0.00 | 0.00 | 0.00 | 64 | 1013.7 |
| 20260501213533 | 62 | 63 | 0.0 | 5.0 | 0.00 | 0.00 | 0.00 | 63 | 1013.8 |
| 20260501213041 | 62 | 0 | 0.0 | 4.0 | 0.00 | 0.00 | 0.00 | 65 | 1013.8 |
| 20260501212534 | 62 | 0 | 1.0 | 4.0 | 0.00 | 0.00 | 0.00 | 64 | 1013.8 |
| 20260501212034 | 62 | 0 | 1.0 | 4.0 | 0.00 | 0.00 | 0.00 | 64 | 1013.9 |
| 20260501211549 | 62 | 0 | 1.0 | 4.0 | 0.00 | 0.00 | 0.00 | 63 | 1013.9 |
| 20260501211033 | 62 | 0 | 1.0 | 4.0 | 0.00 | 0.00 | 0.00 | 62 | 1013.9 |
| 20260501210532 | 62 | 0 | 0.0 | 3.0 | 0.00 | 0.00 | 0.00 | 62 | 1014.0 |